Temp
43 45 44 42 42 44 42 43 38 44 48 52 57 61 64 69 68 70 70 65 63 62 62 63 61 61 61 60 60 60 60 59 57 57 58 57 56 56 55 55 53 52 50 48
35 42 42 39 42 43 43 45 47 50 51 63 66 68 67 69 70 70 67 66 66 66 65 64 63 61 61 60 59 60 58 58 58 57 57 55 54 53 51 50 49 48 46 45
28 39 36 29 39 43 45 49 48 42 51 58 58 65 66 68 67 66 64 67 66 65 63 62 62 61 58 58 59 58 57 57 56 56 55 53 52 51 47 45 46 46 46 44
26 30 13 38 49 49 44 48 50 48 51 55 55 62 69 64 65 64 64 65 64 62 61 61 60 58 58 58 56 55 54 54 55 53 52 51 49 47 45 44 46 46 45 44
23 24 32 38 43 42 43 41 50 48 48 50 52 56 62 67 64 62 61 59 57 58 59 59 58 58 56 54 54 53 52 51 51 50 48 47 46 44 45 47 46 45 45 45
20 10 19 36 47 53 50 33 53 50 49 49 47 40 45 53 60 59 58 58 58 58 57 55 53 54 52 50 50 49 48 48 48 48 46 45 44 45 45 44 44 43 43 43
28 24 29 43 48 51 31 34 49 50 49 47 42 45 49 58 58 57 55 54 54 54 53 52 52 51 48 47 46 47 48 48 47 46 45 44 43 43 42 41 41 39 39 38
25 23 20 49 48 38 45 48 47 49 48 46 47 48 51 56 57 55 53 51 51 48 48 49 50 48 46 44 46 47 47 45 42 43 45 44 41 40 40 39 37 36 36 35
32 31 44 48 46 48 50 47 48 48 49 49 45 46 50 51 53 50 49 48 48 45 43 44 45 46 44 44 46 45 43 40 40 40 42 42 39 38 37 38 36 34 33 33
35 40 43 46 49 50 51 48 50 51 51 49 44 46 47 53 50 47 45 43 43 42 40 40 42 43 43 44 45 42 39 38 38 37 37 37 37 37 35 34 33 33 32 32
35 40 43 46 48 48 49 49 50 51 51 49 46 46 46 48 46 45 44 42 42 40 40 40 42 42 43 42 43 41 39 38 37 37 37 37 37 34 34 33 34 31 33 33
30 41 40 42 47 49 47 48 49 47 46 48 46 47 47 44 43 41 39 40 39 38 38 39 40 40 41 42 41 39 37 36 34 34 33 33 31 28 35 37 36 36 36 34
39 45 45 45 47 49 47 49 48 46 47 46 44 45 42 40 40 39 40 38 37 37 38 37 37 36 38 40 39 36 33 34 31 31 31 30 30 29 27 31 35 35 35 34
47 46 42 46 44 49 48 48 47 47 47 47 39 40 39 38 38 37 37 39 39 37 36 35 35 33 35 38 37 33 32 32 29 29 28 27 26 26 26 26 25 27 32 31
45 48 46 47 48 48 48 46 44 43 45 40 38 36 37 35 34 34 35 35 34 33 32 32 31 31 33 36 35 34 31 30 28 27 27 26 27 26 27 26 26 26 27 27
45 46 47 45 45 46 45 44 43 39 37 36 35 34 35 34 32 31 32 32 29 27 28 27 27 30 31 34 33 31 30 28 27 27 26 26 26 25 24 24 24 24 24 24
40 39 41 42 42 42 41 43 41 35 33 33 32 31 30 29 28 28 28 29 29 28 29 28 25 27 30 32 30 28 27 27 25 26 25 24 24 23 23 22 22 22 22 24
44 38 38 39 40 36 34 34 33 32 32 31 31 29 28 27 26 26 27 28 28 27 29 28 28 28 29 29 28 27 26 25 25 23 24 22 22 23 21 21 21 21 21 22
35 33 33 34 34 33 32 31 31 31 30 30 28 26 26 26 25 25 26 24 23 24 24 28 29 28 28 28 26 26 24 24 23 22 22 19 20 21 19 19 19 19 18 19
32 32 32 32 32 31 30 30 30 28 29 28 27 25 23 24 24 23 24 22 24 24 27 28 28 27 26 25 24 24 23 22 21 20 19 18 17 16 17 16 17 16 15 16
30 30 29 29 28 29 29 28 27 25 26 27 25 23 23 24 25 24 22 21 24 26 25 24 25 25 24 23 23 22 21 19 18 17 16 14 13 15 14 14 15 14 12 13
30 29 29 29 28 28 28 29 28 26 25 25 24 24 23 23 22 21 22 21 23 22 24 24 23 19 21 20 21 19 20 19 17 16 15 14 13 13 13 12 12 11 10 10
29 29 28 27 26 26 27 26 25 25 25 25 24 24 25 25 25 20 17 23 23 20 22 21 17 16 15 17 17 16 15 13 14 13 12 11 12 12 12 10 9 10 7 7
28 29 28 29 29 28 26 27 28 27 25 25 23 22 23 18 18 21 20 16 14 16 17 17 16 15 12 15 14 11 11 10 11 7 12 7 10 10 9 7 7 6 6 5
31 30 30 28 27 26 28 29 28 28 28 27 26 26 26 24 20 19 19 19 19 19 17 13 14 12 13 11 10 9 13 11 10 10 10 8 6 3 3 5 4 4 4 3
31 30 29 29 28 28 29 29 26 25 24 22 22 21 21 22 22 21 19 17 17 13 13 11 8 12 11 11 11 10 10 10 11 8 5 7 3 5 1 3 3 2 1 1
31 30 30 29 30 30 29 28 25 22 22 21 20 20 20 20 19 18 14 12 8 10 11 10 10 11 10 9 9 8 10 8 5 4 3 3 4 4 1 -2 -5 -0 -0 -1
MSLP
1015.61 1015.14 1015.14 1014.46 1013.22 1011.97 1012.63 1012.03 1011.68 1008.86 1008.65 1004.78 1003.50 1003.11 1002.34 1000.54 1000.90 1001.32 1000.51 1000.55 1003.47 1004.86 1005.53 1005.71 1006.05 1007.10 1007.77 1008.03 1008.43 1008.86 1009.11 1009.25 1009.48 1009.61 1009.66 1009.84 1010.08 1010.46 1010.88 1010.72 1010.85 1011.15 1011.18 1011.35
1016.01 1016.37 1015.70 1014.39 1013.11 1012.88 1012.27 1011.59 1010.55 1008.98 1006.80 1003.94 1003.24 1002.46 1001.61 1000.98 1000.09 1000.13 1000.93 1001.16 1001.57 1002.83 1003.88 1004.72 1005.91 1006.94 1008.07 1008.49 1008.93 1009.17 1009.34 1009.54 1009.83 1010.09 1010.31 1010.65 1010.86 1011.20 1011.50 1011.58 1011.68 1011.76 1011.91 1012.10
1017.15 1017.35 1016.59 1014.83 1013.22 1012.55 1011.57 1010.96 1010.44 1008.84 1006.18 1005.66 1004.23 1003.28 1001.94 1001.39 1000.79 1000.80 1001.44 1000.87 1001.14 1002.74 1003.91 1005.22 1006.40 1007.35 1008.53 1009.04 1009.36 1009.49 1009.76 1010.19 1010.64 1010.95 1011.18 1011.53 1011.82 1011.84 1012.30 1012.48 1012.47 1012.37 1012.38 1012.43
1018.40 1018.35 1016.61 1013.95 1013.35 1012.58 1012.06 1010.65 1010.25 1009.10 1007.74 1006.98 1005.93 1003.59 1001.75 1001.16 1001.16 1001.84 1002.04 1003.18 1003.10 1003.15 1004.13 1005.41 1006.82 1007.83 1008.68 1009.40 1009.76 1010.22 1010.67 1011.23 1011.55 1011.74 1012.02 1012.47 1012.59 1012.83 1012.83 1013.03 1013.11 1012.97 1012.85 1013.05
1018.34 1017.51 1015.55 1014.12 1013.22 1012.84 1012.17 1009.53 1010.46 1009.28 1008.62 1008.04 1007.14 1004.69 1001.81 1001.65 1000.71 1001.19 1003.50 1004.00 1005.21 1006.03 1006.36 1006.34 1007.06 1008.38 1009.17 1009.98 1010.63 1011.08 1011.62 1012.20 1012.56 1012.72 1013.12 1013.45 1013.45 1013.20 1013.21 1013.55 1013.62 1013.54 1013.36 1013.47
1017.82 1017.08 1015.65 1012.98 1012.46 1011.88 1011.48 1008.50 1009.85 1009.56 1009.05 1009.00 1008.90 1007.85 1005.27 1004.93 1002.48 1001.45 1002.84 1004.80 1006.19 1007.52 1007.56 1008.25 1008.18 1009.19 1009.98 1011.03 1011.68 1012.07 1012.74 1013.14 1013.40 1013.80 1013.98 1014.15 1014.20 1014.11 1014.19 1014.40 1014.37 1014.29 1014.29 1014.22
1016.79 1016.45 1014.97 1012.15 1012.09 1012.27 1011.90 1009.88 1009.88 1010.14 1010.00 1010.26 1010.19 1010.14 1007.60 1001.78 1002.89 1002.06 1003.35 1004.02 1005.15 1007.10 1008.92 1009.60 1009.80 1010.16 1011.60 1011.95 1012.82 1013.40 1013.50 1013.89 1014.37 1014.16 1014.71 1015.03 1015.11 1015.01 1015.21 1015.20 1015.17 1015.28 1015.26 1015.20
1015.60 1015.20 1013.66 1011.68 1011.39 1011.80 1010.64 1010.32 1010.32 1010.20 1010.20 1010.02 1009.72 1009.18 1007.57 1006.06 1003.05 1004.21 1005.15 1006.12 1007.10 1007.61 1008.78 1010.42 1011.16 1012.37 1012.67 1013.08 1013.71 1013.95 1014.38 1014.59 1014.85 1015.20 1015.42 1015.77 1015.95 1015.93 1015.87 1015.93 1015.99 1015.94 1015.70 1015.52
1014.12 1012.94 1011.78 1010.59 1011.17 1011.20 1010.44 1009.83 1009.43 1009.28 1009.26 1009.48 1009.33 1008.87 1007.81 1007.17 1003.70 1003.98 1006.44 1007.83 1008.57 1009.06 1010.59 1012.20 1012.73 1013.43 1013.33 1014.02 1014.63 1014.62 1014.93 1015.58 1015.84 1015.94 1016.10 1016.41 1016.56 1016.42 1016.29 1016.35 1016.56 1016.44 1016.14 1015.82
1013.06 1011.85 1011.32 1010.42 1010.50 1010.66 1010.12 1009.76 1009.34 1009.22 1008.85 1009.14 1009.24 1008.70 1007.64 1008.54 1005.57 1006.22 1007.80 1008.98 1010.12 1010.92 1011.33 1013.30 1013.94 1014.11 1014.38 1014.77 1015.06 1015.45 1016.16 1016.37 1016.59 1016.59 1016.91 1017.09 1017.08 1017.09 1017.03 1016.95 1016.93 1016.77 1016.41 1015.91
1012.27 1011.47 1010.51 1010.15 1009.87 1009.89 1009.44 1009.37 1009.18 1009.10 1009.12 1008.93 1009.00 1007.29 1008.38 1007.71 1006.09 1007.59 1008.88 1009.39 1010.59 1011.86 1013.05 1014.23 1015.08 1015.18 1015.52 1015.81 1015.74 1016.14 1016.59 1016.69 1016.88 1017.14 1017.32 1017.42 1017.48 1017.46 1017.53 1017.28 1017.05 1016.69 1016.39 1016.02
1010.68 1010.03 1009.92 1009.50 1008.92 1009.06 1008.87 1008.80 1008.94 1008.93 1008.66 1008.33 1007.64 1006.33 1007.57 1007.71 1007.93 1008.45 1009.62 1010.87 1011.43 1013.29 1014.35 1015.36 1015.90 1016.33 1016.46 1016.54 1016.30 1016.41 1016.99 1017.43 1017.66 1017.77 1017.86 1017.89 1017.87 1017.90 1017.52 1017.34 1017.11 1016.82 1016.40 1016.05
1009.14 1008.60 1008.54 1008.30 1008.02 1007.93 1008.13 1008.29 1008.50 1008.71 1008.83 1008.51 1008.42 1008.35 1007.75 1007.96 1009.76 1010.33 1011.14 1011.76 1013.28 1014.07 1015.21 1016.28 1016.82 1017.16 1017.11 1017.04 1016.83 1017.43 1017.91 1018.23 1018.34 1018.40 1018.63 1018.89 1018.89 1018.74 1018.53 1017.96 1017.61 1017.23 1016.86 1016.73
1007.69 1007.57 1007.29 1006.86 1006.68 1006.88 1007.14 1007.47 1007.85 1008.08 1008.27 1008.89 1009.91 1010.14 1008.41 1009.29 1011.19 1012.03 1012.72 1013.23 1014.27 1015.55 1016.56 1017.25 1017.66 1017.93 1017.98 1017.62 1017.64 1018.32 1018.62 1018.82 1019.18 1019.55 1019.78 1019.89 1019.85 1019.57 1019.22 1018.88 1018.51 1018.06 1017.61 1017.43
1005.85 1005.57 1005.61 1005.56 1005.72 1005.92 1006.45 1007.06 1007.73 1007.93 1006.72 1008.00 1009.69 1011.13 1010.39 1010.80 1012.05 1013.54 1014.50 1015.17 1015.95 1016.66 1017.67 1018.46 1018.87 1019.03 1018.78 1018.44 1018.66 1019.13 1019.51 1019.85 1020.22 1020.59 1020.73 1020.67 1020.46 1020.14 1019.92 1019.67 1019.36 1018.95 1018.58 1018.15
1004.28 1004.34 1004.40 1004.41 1004.67 1005.05 1005.89 1006.93 1007.53 1008.69 1009.47 1009.57 1010.58 1011.27 1011.46 1012.39 1013.91 1015.10 1015.99 1016.54 1016.98 1017.81 1018.97 1019.54 1019.76 1019.96 1019.72 1019.66 1019.90 1020.13 1020.52 1020.94 1021.18 1021.35 1021.37 1021.28 1021.06 1020.99 1020.91 1020.63 1020.25 1019.83 1019.42 1019.09
1003.15 1003.44 1003.80 1003.89 1004.39 1004.83 1005.35 1005.61 1006.39 1008.16 1010.08 1011.14 1011.31 1011.54 1013.22 1014.31 1015.13 1016.36 1017.62 1018.29 1018.65 1019.14 1019.85 1020.25 1020.72 1020.73 1020.64 1020.89 1021.05 1021.30 1021.59 1021.88 1022.10 1022.09 1022.09 1022.13 1022.08 1021.97 1021.80 1021.56 1021.21 1020.79 1020.41 1020.03
1002.80 1003.58 1003.47 1003.03 1003.52 1004.91 1005.38 1006.11 1007.48 1009.02 1010.53 1012.44 1012.12 1013.03 1014.42 1015.42 1016.65 1017.89 1018.80 1019.44 1019.78 1020.29 1020.91 1021.16 1021.37 1021.54 1021.84 1022.05 1022.15 1022.28 1022.45 1022.82 1022.99 1023.07 1023.20 1023.13 1023.08 1022.92 1022.76 1022.45 1022.03 1021.69 1021.30 1020.72
1003.63 1004.28 1003.37 1002.39 1004.22 1005.90 1006.78 1007.84 1009.25 1010.64 1012.13 1013.10 1013.55 1014.92 1016.18 1017.19 1018.21 1019.40 1019.99 1020.60 1021.07 1021.38 1022.01 1022.12 1022.35 1022.58 1022.88 1023.11 1023.05 1023.25 1023.43 1023.66 1023.92 1024.15 1024.23 1024.30 1024.01 1023.70 1023.65 1023.43 1023.10 1022.77 1022.35 1021.66
1006.01 1006.15 1005.85 1006.15 1007.28 1007.96 1008.86 1010.10 1011.01 1012.50 1013.98 1014.38 1015.38 1016.58 1017.65 1018.78 1019.59 1020.33 1021.09 1021.84 1022.38 1022.69 1022.83 1023.14 1023.39 1023.59 1023.74 1024.06 1024.23 1024.25 1024.51 1024.76 1024.86 1025.11 1025.18 1025.06 1024.95 1024.84 1024.81 1024.53 1024.19 1023.83 1023.45 1022.84
1008.31 1008.52 1008.62 1009.12 1010.11 1010.66 1011.72 1013.06 1013.85 1014.82 1015.82 1016.27 1016.92 1017.98 1018.89 1019.98 1020.66 1021.25 1021.77 1022.31 1023.46 1023.74 1024.04 1024.19 1024.29 1024.55 1024.89 1025.11 1025.22 1025.45 1025.61 1025.74 1025.96 1026.03 1026.09 1026.08 1026.06 1026.02 1025.86 1025.51 1025.11 1024.81 1024.51 1023.95
1010.47 1010.65 1011.04 1011.51 1012.34 1013.33 1014.29 1014.86 1015.52 1016.42 1017.22 1018.08 1018.92 1019.59 1020.24 1020.99 1021.61 1022.25 1022.97 1023.40 1024.34 1024.68 1025.01 1025.28 1025.32 1025.50 1025.89 1026.17 1026.38 1026.50 1026.59 1026.69 1026.88 1026.99 1026.98 1027.05 1027.07 1026.91 1026.70 1026.44 1026.07 1025.80 1025.48 1025.03
1012.45 1012.73 1013.10 1013.47 1014.22 1015.22 1016.12 1016.78 1017.21 1017.67 1018.40 1019.21 1019.99 1020.49 1021.01 1021.91 1022.72 1023.12 1023.97 1025.06 1025.36 1025.70 1025.81 1026.05 1026.26 1026.65 1026.93 1027.43 1027.47 1027.43 1027.59 1027.79 1027.83 1027.87 1028.03 1028.00 1027.91 1027.75 1027.60 1027.45 1027.19 1026.81 1026.46 1025.94
1013.93 1014.38 1014.72 1015.28 1015.64 1016.13 1016.86 1018.13 1018.58 1019.04 1019.38 1020.12 1020.98 1021.66 1022.37 1023.27 1024.16 1024.78 1025.30 1025.85 1026.25 1026.36 1026.53 1027.01 1027.40 1027.69 1028.19 1028.21 1028.25 1028.45 1028.60 1028.62 1028.68 1028.77 1028.79 1028.77 1028.77 1028.67 1028.51 1028.36 1028.12 1027.82 1027.36 1026.81
1015.08 1015.49 1016.04 1016.62 1017.12 1017.78 1018.28 1018.93 1019.34 1020.19 1020.86 1021.42 1022.27 1022.76 1023.63 1024.21 1024.26 1025.45 1026.10 1026.48 1027.02 1027.27 1027.64 1028.13 1028.27 1028.52 1028.82 1029.00 1029.10 1029.33 1029.39 1029.53 1029.61 1029.57 1029.57 1029.63 1029.55 1029.42 1029.32 1029.17 1028.99 1028.73 1028.21 1027.72
1015.73 1016.30 1016.99 1017.43 1017.90 1018.47 1019.09 1019.57 1019.95 1021.10 1022.07 1023.04 1023.87 1024.31 1024.53 1024.80 1025.36 1026.01 1026.64 1027.22 1027.94 1028.32 1028.59 1028.88 1029.20 1029.21 1029.55 1029.82 1029.84 1030.05 1030.20 1030.31 1030.44 1030.48 1030.46 1030.37 1030.17 1030.21 1030.13 1030.08 1029.78 1029.33 1028.98 1028.50
1016.64 1016.91 1017.66 1018.22 1018.85 1019.24 1019.85 1020.42 1021.18 1022.18 1023.17 1023.74 1024.21 1024.92 1025.15 1025.53 1026.06 1026.68 1027.40 1028.13 1028.73 1029.01 1029.15 1029.60 1029.81 1029.96 1030.12 1030.32 1030.65 1030.92 1030.89 1031.02 1031.20 1031.19 1031.18 1031.17 1031.03 1030.91 1030.91 1030.87 1030.66 1030.09 1029.65 1029.21
Wind_Speed
14 11 9 17 23 25 14 13 8 17 19 32 28 21 20 23 6 7 10 24 18 9 9 11 11 9 7 7 7 7 9 9 7 8 9 8 9 8 8 12 12 11 11 11
16 8 12 21 19 16 17 19 19 20 22 21 24 19 21 20 16 9 12 17 21 20 19 16 14 12 8 7 7 8 10 10 9 9 9 8 9 9 11 11 11 11 11 10
10 4 12 14 11 12 18 17 9 12 23 22 25 23 15 15 4 2 2 17 21 18 15 12 12 12 9 8 9 11 12 11 9 9 10 11 10 11 11 9 9 10 9 7
10 4 9 12 10 12 21 22 14 20 23 22 25 28 21 3 8 9 8 1 10 17 16 15 14 13 12 11 11 12 12 11 9 10 11 10 11 10 9 8 9 8 8 7
7 14 16 21 18 18 19 21 14 11 16 20 25 25 16 9 4 16 15 17 15 11 12 15 15 13 14 12 11 11 12 11 11 11 11 9 8 7 8 9 9 6 5 6
4 3 17 23 17 14 14 24 9 15 20 21 20 17 14 28 3 20 23 17 15 12 15 14 15 15 15 12 11 12 11 11 11 10 10 8 10 11 10 9 9 8 9 10
10 9 9 16 18 18 20 15 18 18 19 18 14 13 23 31 13 22 22 24 24 18 14 13 14 16 12 11 12 10 11 11 9 9 10 11 10 10 10 9 9 9 8 8
4 7 18 9 13 13 13 18 17 18 13 18 17 22 25 21 20 20 21 21 20 20 18 14 14 11 12 13 10 9 8 11 11 9 9 9 10 9 9 10 9 8 9 6
11 9 8 17 12 10 19 21 18 16 15 16 19 22 21 13 19 23 21 16 16 19 19 13 13 9 12 10 7 8 12 10 9 7 10 10 8 9 6 7 8 8 6 6
14 14 15 17 14 13 15 14 18 17 18 14 22 22 16 14 19 18 17 18 16 18 20 14 11 11 10 7 8 10 10 9 9 10 9 9 7 6 6 4 5 6 6 6
17 18 19 18 20 16 18 12 18 13 17 18 19 22 26 11 21 19 18 18 19 16 15 14 11 11 10 10 7 10 9 9 8 7 8 8 6 3 3 2 3 5 5 5
16 19 15 18 20 18 18 16 11 9 16 19 21 18 13 14 16 19 19 17 20 17 15 13 12 11 9 7 8 8 10 8 8 7 6 5 4 4 8 10 12 13 13 10
23 23 19 19 16 16 13 12 6 9 12 11 14 5 17 19 17 20 19 20 17 17 16 13 12 11 10 8 13 13 10 9 6 7 8 9 8 8 8 8 12 15 16 21
20 20 23 22 16 11 8 7 6 11 15 7 11 4 18 22 19 18 17 18 18 17 15 13 12 12 10 8 13 12 10 11 9 8 8 7 6 6 6 7 8 8 12 19
26 20 17 17 18 17 10 5 8 8 6 19 18 11 17 22 19 17 17 17 17 17 15 13 12 11 11 10 12 13 9 9 8 6 6 6 7 7 8 8 9 8 9 12
21 21 20 13 12 12 10 9 14 6 5 15 17 19 19 19 19 17 15 15 16 15 13 11 11 9 10 11 12 10 10 11 8 7 7 8 8 9 9 9 9 9 9 11
13 12 12 17 16 13 16 19 10 17 14 14 18 22 22 20 20 19 17 15 14 13 11 12 10 8 10 11 11 7 7 8 10 8 8 8 8 9 9 9 9 9 9 11
11 10 10 19 15 7 16 20 21 20 19 15 19 20 19 19 19 18 16 14 14 14 13 10 9 11 11 11 10 8 8 8 9 9 8 9 9 8 9 9 10 10 10 11
13 9 16 23 21 20 20 21 21 21 18 17 20 20 19 19 18 15 12 12 13 14 10 10 11 13 12 12 10 8 9 10 9 9 8 8 8 9 9 9 10 10 10 10
16 17 21 23 21 20 21 19 21 18 16 20 20 19 18 15 15 15 14 15 11 8 10 11 11 11 12 13 11 9 10 9 9 8 7 8 8 8 9 10 10 10 10 10
18 19 22 23 20 20 19 16 18 17 16 17 18 17 17 16 13 13 14 12 11 11 12 13 10 9 8 9 9 8 8 8 8 7 7 7 7 8 8 8 9 9 9 10
15 17 19 20 19 18 16 17 18 18 17 17 15 15 15 16 15 14 13 12 8 10 8 8 8 11 9 10 8 7 8 8 7 7 7 7 7 7 8 8 9 9 9 10
14 16 17 18 18 18 16 15 15 16 16 14 12 13 13 10 8 10 11 9 8 8 9 8 10 11 10 6 6 8 8 6 6 6 6 5 6 7 8 8 8 8 9 9
14 15 16 15 16 17 19 13 13 13 14 14 13 12 11 9 10 9 10 10 9 10 9 8 9 11 6 6 7 5 5 5 5 4 6 7 6 7 7 7 7 8 8 9
13 13 14 14 14 12 15 13 14 13 14 14 13 12 12 7 9 8 7 8 10 9 8 9 10 8 6 5 6 5 6 4 5 5 5 5 5 5 4 6 7 7 8 8
10 9 9 11 10 9 8 8 9 10 9 10 8 8 8 8 9 9 9 9 7 7 6 5 5 5 6 5 5 5 7 6 6 6 5 6 4 6 5 6 7 7 7 8
10 11 9 8 6 7 7 8 9 9 8 8 10 7 8 8 9 10 9 6 4 4 5 5 5 6 5 6 6 6 6 5 7 5 5 5 6 5 6 5 4 6 7 7
Wind_Direction
260 276 324 303 291 295 281 274 282 273 253 263 266 274 277 289 289 315 211 132 121 73 105 110 104 97 88 92 99 100 92 77 66 72 61 53 54 49 30 47 49 44 41 42
280 305 284 276 287 298 290 281 259 267 271 273 270 271 274 272 301 303 167 147 145 149 144 130 122 119 112 99 96 96 88 72 59 62 56 51 54 45 56 45 46 48 41 43
280 339 326 295 283 276 272 276 319 294 288 311 302 294 281 284 278 305 288 170 148 140 125 117 115 120 108 94 85 76 74 64 52 61 56 57 54 54 54 44 41 42 41 39
270 316 249 261 279 300 311 293 294 312 308 320 316 309 288 209 64 336 1 15 107 119 115 115 103 97 97 85 77 72 68 61 49 58 57 55 56 55 55 42 38 36 29 16
231 246 280 288 283 285 293 286 298 293 350 346 342 325 300 280 146 100 77 108 102 77 79 94 95 93 88 77 75 74 69 60 48 55 57 52 50 52 51 44 37 20 18 4
270 228 265 273 278 266 310 287 212 348 342 345 353 335 306 313 224 111 115 107 90 94 96 81 84 82 78 74 70 68 68 62 51 62 52 38 42 37 35 28 26 12 18 21
233 256 263 260 269 273 263 277 324 340 341 342 332 320 298 286 166 124 126 124 119 97 76 80 77 81 79 77 73 76 71 68 56 52 64 44 38 30 32 23 18 13 7 5
241 250 267 267 265 250 288 323 323 322 324 329 326 326 308 298 115 103 106 104 99 90 91 84 73 77 78 74 70 74 83 71 56 48 47 45 39 34 34 26 18 9 2 359
222 242 264 289 298 289 299 297 309 319 327 329 323 322 307 272 112 113 109 93 91 92 84 70 72 69 76 81 81 72 71 72 65 40 54 44 38 31 28 21 14 2 351 346
276 270 278 286 295 290 285 291 296 317 320 333 323 324 317 272 110 99 99 96 91 91 88 82 72 65 56 58 78 81 77 61 61 49 48 38 32 17 9 18 14 349 333 332
270 269 273 273 269 274 280 299 307 305 311 316 315 305 300 193 113 111 110 107 97 85 91 85 80 71 60 47 61 86 86 74 65 51 38 30 23 17 356 305 331 321 313 309
246 249 249 261 271 275 273 283 290 318 323 322 315 277 160 120 110 109 107 103 99 102 96 91 79 70 68 65 60 71 63 54 43 36 23 12 3 331 333 350 355 348 344 351
250 254 254 255 257 265 269 289 295 312 312 307 19 89 118 99 94 99 100 99 101 100 95 84 75 59 37 46 71 69 62 49 35 25 23 24 19 14 3 353 353 351 353 31
256 265 268 263 253 267 263 284 298 304 274 215 121 163 102 102 96 91 96 99 94 91 86 77 67 48 21 45 71 68 55 41 43 51 37 25 10 5 4 5 4 4 11 19
254 245 245 259 263 259 259 265 283 333 246 138 132 140 110 105 99 98 90 90 88 81 74 68 58 39 20 54 61 64 50 55 49 44 34 25 18 16 17 13 10 6 6 12
254 250 247 246 258 261 244 232 258 162 124 123 122 116 101 94 95 92 87 86 89 83 79 70 60 37 30 53 60 56 52 52 50 45 34 26 23 22 19 13 8 6 8 6
258 252 256 260 249 245 262 267 208 127 123 119 112 103 101 99 91 87 84 83 83 83 81 75 64 39 40 59 61 53 56 56 46 44 37 29 25 24 20 11 7 7 5 2
292 343 285 251 235 121 103 108 111 114 110 116 102 98 97 96 99 97 94 92 85 79 73 75 62 55 62 58 59 58 57 55 49 39 36 31 24 22 21 11 10 10 1 358
79 57 57 71 102 105 100 98 96 97 103 105 97 94 96 96 98 101 96 84 79 82 69 61 65 67 65 61 59 59 58 55 50 43 35 28 26 28 22 15 10 13 2 360
72 73 75 80 83 91 93 89 92 95 101 103 102 100 96 94 97 95 90 81 71 68 65 73 65 69 65 58 55 58 56 54 50 45 37 32 26 28 21 16 13 13 4 2
70 74 77 79 78 79 84 93 99 95 95 95 100 103 104 104 103 103 98 92 77 71 69 61 63 67 64 61 56 57 54 55 49 42 36 32 25 24 21 11 15 14 6 0
75 77 79 81 80 80 82 89 93 97 98 96 93 97 100 96 92 85 78 90 88 75 74 71 69 63 63 59 56 54 56 52 50 43 40 34 28 24 23 16 15 14 7 0
76 81 84 85 87 88 84 84 90 95 99 100 105 103 98 99 96 98 96 85 87 82 79 71 68 67 57 54 60 56 46 42 45 45 37 31 28 28 28 22 12 7 2 358
85 84 88 93 96 94 91 88 90 87 89 89 84 87 97 99 84 81 91 92 84 80 78 77 71 67 69 63 54 47 47 38 37 32 44 35 35 28 25 16 14 3 3 359
100 99 97 98 98 99 105 106 100 94 94 92 91 95 104 102 103 118 108 96 80 80 81 76 74 64 64 66 64 54 43 48 42 38 37 48 30 19 14 17 11 6 2 0
98 95 98 101 106 110 114 110 97 96 95 96 93 94 95 94 97 99 96 88 84 80 75 68 65 66 66 62 62 63 55 43 46 40 35 30 31 28 16 17 13 6 360 359
100 105 110 109 107 105 106 109 110 114 119 118 113 111 109 105 99 99 95 90 84 83 74 64 65 67 72 67 62 56 49 47 43 41 38 34 26 23 21 11 360 5 2 358